STARLINK-32810 (63037 NORAD) Tracking and Keplerian Element Data

This shows tracking and keplerian element data for the satellite.

Feedback or suggestion? Click here.




ElementValue
Catalog63037
NameSTARLINK-32810
Epoch Orbit4689
Epoch Day354.064713
Epoch Year2025
RAAN268.1409
Inclination53.1585
Eccentricity6.72E-05
Argument of Perigee285.9207
Mean Anonmoly74.172
Mean Motion15.30197865
Decay Rate9.921E-05
L11 63037U 25034J 25354.06471300 .00009921 00000+0 34666-3 0 9991
L22 63037 53.1585 268.1409 0000672 285.9207 74.1720 15.30197865 46899



Live tracking and technical data element details for STARLINK-32810 (NORAD 63037). STARLINK-32810 can be tracked NOW for your location showing map with azimuth and elevation plus other details from your city location.







IsCatalogInMostPopularTable: catalog: 63037, numindb: 2
Update: records affected: 1



GetName: 63037 STARLINK-32810

Hit Count: updated at: Sun, 08 Feb 2026 08:57:22 GMT